Weather in Philipsburg

Sint Maarten     18°01′29″N   63°02′52″W
temp.,
°C
wind,
m/s
gust,
m/s
humid.,
%
clouds,
%
prec.,
mm/h
press.,
hPa
HPBL,
m
18 april, sun
sun1823:00+26ese77790 0.0 1018650
02:00+26ese77781 0.0 1016735
05:00+26ese777772 0.0 1016930
08:00+26ese887299 0.1 10181077
11:00+26ese787095 0.0 10191150
14:00+26ese677145 0.1 10171078
17:00+26e667322 0.0 1016847
20:00+26e77740 0.1 1018822
19 april, mon
mon1923:00+26e68760 0.0 10191091
02:00+26e88721 0.1 10171069
05:00+26e996977 0.0 10171229
08:00+26e8971100 0.1 10191227
11:00+26e897397 0.1 10201168
14:00+26e787366 0.2 10181315
17:00+26e787518 0.1 1017859
20:00+26e6873100 0.1 1019728
20 april, tue
tue2023:00+26e8976100 0.0 10191008
02:00+26e91071100 0.0 10171039
05:00+26e91071100 0.0 10181149
08:00+26e91070100 0.1 10201368
11:00+26e9972100 0.1 10201078
14:00+26e897154 0.1 10181115
17:00+26e810755 0.0 10171042
20:00+26e910730 0.0 10181034
21 april, wed
wed2123:00+26e910730 0.0 10191166
02:00+26ene897819 0.1 1017987
05:00+26e1011710 2.6 10171086
08:00+26e1011740 2.6 10191125
11:00+26e910700 0.0 10181070
14:00+26e89703 0.0 10171053
17:00+26e787710 0.1 1016884
20:00+26e89760 1.1 1018985
22 april, thu
thu2223:00+26e89721 0.0 1018954
02:00+25e898022 0.7 1016779
05:00+26e9107631 0.5 10161034
08:00+26e9107863 1.6 1017954
11:00+26e910780 0.6 1018897
14:00+26e78770 0.6 1016865
17:00+26e78750 0.0 1015802
20:00+26ese6777100 1.4 1016644